User: anonymous   Login
Location: Quaker Farms
(41.4276°N, 73.1557°W)
Time: 17:48:11
(UTC+00:00)
Language:

Tiros 1 - Orbit

View from above orbital plane
View from above orbital plane
View from above satellite
View from above satellite

Ground track
Ground track

The orbit data is extracted from the following two-line orbital elements,

1    29U 60002B   21168.88162943 -.00000102  00000-0  15881-4 0  9999
2    29  48.3808  23.9553 0024126 354.9635   5.1031 14.74434345272584
Epoch (UTC): 17 June 2021 21:09:32
Eccentricity: 0.0024126
inclination: 48.3808°
perigee height: 630 km
apogee height: 664 km
right ascension of ascending node: 23.9553°
argument of perigee: 354.9635°
revolutions per day: 14.74434345
mean anomaly at epoch: 5.1031°
orbit number at epoch: 27258

The dashed part of the orbit path shows where the satellite is in the earth's shadow,  

DLR